星链-31218 (STARLINK-31218 )

导读 | 豆包AI

STARLINK-31218是美国SpaceX星链星座下的低轨互联网卫星,于2024年1月29日发射入轨。星链项目计划部署超4.2万颗低轨卫星,旨在为全球,尤其是地面基础设施匮乏的偏远地区,提供高速低延迟的宽带互联网接入服务。作为星链星座的组成部分,该卫星助力全球网络覆盖完善,推动缩小数字鸿沟,同时星链也引发了关于太空拥堵与天文观测影响的争议。

基本信息
目录编号:
58895
目录名称:
STARLINK-31218
国际标识:
2024-020V
轨道中心:
EARTH
卫星名称:
星链-31218
卫星全名:
星链-31218 (STARLINK-31218 )
卫星状态:
在轨 (已飞行776 天)
发射日期:
2024-01-29 UTC
国别 :
美国 (US)
星等 :
--
轨道信息
数据来源 国际轨道数据
星历时间: 2026-03-15T16:05:19+0800
15小时前
查看轨道信息
半长轴: 6853.383km
偏心率: 0.0001239
轨道倾角: 53.160°
近地点辐角 94.248°
升交点赤经 296.335°
平近点角 265.866°
近地点: 474.396km
远地点: 476.096km
周期: 94.106分钟
每日圈数: 15.301899
详细信息
固有亮度:
5
最大亮度:
0.3
卫星平台:
Starlink v2.0 mini
覆盖范围:
全球
运营商:
太空探索技术公司
运营商所在国:
美国
制造商(研发单位):
太空探索技术公司
制造商所在国:
美国
使用方式:
暂无
卫星简介
星链(Starlink)计划是由太空探索技术公司(SpaceX)提出的一个巨型低轨卫星互联网星座项目,计划在2019年至2024年间在太空搭建由约1.2万颗卫星组成的“星链”网络,其中1584颗将部署在地球上空550千米处的近地轨道,并从2020年开始工作。该卫星仍在工作。
2D轨道图
3D轨道图
轨道高度分析图
轨道倾角分析图
轨道综合分析图
查看轨道综合分析图